Tracking 19638 objects as of 19-May-2019
HD Live streaming from Space Station
objects crossing your sky now

IRIDIUM 82

Track IRIDIUM 82 now!
10-day predictions
IRIDIUM 82 is classified as:


NORAD ID: 25467
Int'l Code: 1998-051A
Perigee: 476.7 km
Apogee: 731.1 km
Inclination: 86.4 °
Period: 96.6 minutes
Semi major axis: 6974 km
RCS: 4.1187 m2 (large)
Launch date: September 8, 1998
Source: United States (US)
Launch site: AIR FORCE WESTERN TEST RANGE (AFWTR)
aabbcc
Your satellite tracking list
Your tracking list is empty




NASA's NSSDC Master Catalog

Two Line Element Set (TLE):
1 25467U 98051A   19138.20107262  .00001071  00000-0  76962-4 0  9992
2 25467  86.4026  60.9748 0182386  55.0357 306.7844 14.90366051 91062
Source of the keplerian elements: AFSPC